User: anonymous   Login
Location: Unspecified
(0.0000°N, 0.0000°E)
Time: 12:38:25
(UTC+00:00)
Language:

USA 285 - Orbit

View from above orbital plane
View from above orbital plane
View from above satellite
View from above satellite

Ground track
Ground track

The orbit data is extracted from the following two-line orbital elements,

1 43445U 18036E   20047.60535554 -.00000206 +00000-0 +00000-0 0  9993
2 43445 001.5170 091.2052 0006790 095.4189 066.1682 01.02115891003328
Epoch (UTC): 16 February 2020 14:31:42
Eccentricity: 0.0006790
inclination: 1.5170°
perigee height: 35249 km
apogee height: 35305 km
right ascension of ascending node: 91.2052°
argument of perigee: 95.4189°
revolutions per day: 1.02115891
mean anomaly at epoch: 66.1682°
orbit number at epoch: 332

The dashed part of the orbit path shows where the satellite is in the earth's shadow,  

DLR